Weather History for KMVE - February, 2013

Change the Weather History Date:

Friday, February 22, 2013

  Actual Average Record
Temperature  
Mean Temperature 16 °F -  
Max Temperature 21 °F 32 °F 59 °F (1961)
Min Temperature 12 °F 14 °F -20 °F (1952)
Degree Days  
Heating Degree Days 48    
Moisture  
Dew Point 16 °F    
Average Humidity 94    
Maximum Humidity 100    
Minimum Humidity 79    
Precipitation  
Precipitation 0.00 in - - ()
Sea Level Pressure  
Sea Level Pressure 29.96 in    
Wind  
Wind Speed 8 mph (North)    
Max Wind Speed 14 mph    
Max Gust Speed 17 mph    
Visibility 6 miles    
Events Snow    
Averages and records for this station are not official NWS values.
T = Trace of Precipitation, MM = Missing Value Source: NWS Daily Summary

Daily Weather History Graph

Daily Weather History Graph

Search for Another Location

Airport or City:

Trip Planner

Search our weather history database for the weather conditions in past years. The results will help you decide how hot, cold, wet, or windy it might be!

Date:

Astronomy

Feb. 22, 2013 Rise Set
Actual Time 7:12 AM CST 6:01 PM CST
Civil Twilight 6:42 AM CST 6:30 PM CST
Nautical Twilight 6:08 AM CST 7:04 PM CST
Astronomical Twilight 5:34 AM CST 7:38 PM CST
Moon 3:08 PM CST (2/22) 5:03 AM CST (2/22)
Length of Visible Light 11h 48m
Length of Day
10h 49m
Waxing Gibbous, 90% of the Moon is Illuminated
Feb 22
Waxing Gibbous
Feb 25
Full
Mar 4
Last Quarter
Mar 11
New
Mar 19
First Quarter

Hourly Weather History & Observations

Time (CST) Temp. Windchill Dew Point Humidity Pressure Visibility Wind Dir Wind Speed Gust Speed Precip Events Conditions
12:14 AM 17.6 °F 9.3 °F 12.2 °F 79% 30.07 in 10.0 mi ENE 5.8 mph - N/A   Overcast
12:34 AM 17.6 °F 8.2 °F 12.2 °F 79% 30.05 in 10.0 mi ENE 6.9 mph - N/A   Mostly Cloudy
12:54 AM 17.6 °F 8.2 °F 14.0 °F 86% 30.04 in 10.0 mi ENE 6.9 mph - N/A   Scattered Clouds
1:14 AM 19.4 °F 11.5 °F 15.8 °F 86% 30.04 in 10.0 mi ENE 5.8 mph - N/A   Mostly Cloudy
1:34 AM 19.4 °F 11.5 °F 15.8 °F 86% 30.04 in 10.0 mi ENE 5.8 mph - N/A   Overcast
1:54 AM 19.4 °F 14.3 °F 15.8 °F 86% 30.03 in 10.0 mi ENE 3.5 mph - N/A   Overcast
2:14 AM 19.4 °F 10.4 °F 17.6 °F 93% 30.03 in 2.0 mi East 6.9 mph - N/A Snow Light Snow
2:34 AM 17.6 °F 9.3 °F 17.6 °F 100% 30.03 in 1.5 mi ENE 5.8 mph - N/A Snow Light Snow
2:54 AM 17.6 °F 8.2 °F 17.6 °F 100% 30.02 in 2.0 mi NE 6.9 mph - N/A Snow Light Snow
3:14 AM 17.6 °F 7.3 °F 17.6 °F 100% 30.01 in 3.0 mi ENE 8.1 mph - N/A Snow Light Snow
3:34 AM 17.6 °F 7.3 °F 17.6 °F 100% 30.00 in 2.5 mi ENE 8.1 mph - N/A Snow Light Snow
3:54 AM 17.6 °F 6.4 °F 17.6 °F 100% 30.00 in 2.0 mi NE 9.2 mph - N/A Snow Light Snow
4:14 AM 17.6 °F 6.4 °F 17.6 °F 100% 30.00 in 2.0 mi NE 9.2 mph - N/A Snow Light Snow
4:34 AM 17.6 °F 5.7 °F 17.6 °F 100% 29.99 in 1.2 mi NE 10.4 mph - N/A Snow Light Snow
4:54 AM 17.6 °F 5.7 °F 17.6 °F 100% 29.98 in 2.5 mi NE 10.4 mph - N/A Snow Light Snow
5:14 AM 17.6 °F 5.0 °F 17.6 °F 100% 29.98 in 1.8 mi NE 11.5 mph - N/A Snow Light Snow
5:34 AM 17.6 °F 5.7 °F 17.6 °F 100% 29.98 in 2.0 mi NE 10.4 mph - N/A Snow Light Snow
5:54 AM 17.6 °F 6.4 °F 17.6 °F 100% 29.98 in 4.0 mi NE 9.2 mph - N/A Snow Light Snow
6:14 AM 19.4 °F 7.9 °F 17.6 °F 93% 29.98 in 2.0 mi NE 10.4 mph - N/A Snow Light Snow
6:34 AM 19.4 °F 8.6 °F 17.6 °F 93% 29.98 in 2.0 mi NE 9.2 mph - N/A Snow Light Snow
6:54 AM 19.4 °F 9.5 °F 17.6 °F 93% 29.97 in 3.0 mi NE 8.1 mph - N/A Snow Light Snow
7:14 AM 17.6 °F 8.2 °F 17.6 °F 100% 29.98 in 4.0 mi North 6.9 mph - N/A Snow Light Snow
7:34 AM 17.6 °F 9.3 °F 17.6 °F 100% 29.98 in 7.0 mi North 5.8 mph - N/A Snow Light Snow
7:54 AM 17.6 °F 8.2 °F 17.6 °F 100% 29.98 in 10.0 mi North 6.9 mph - N/A Snow Light Snow
8:14 AM 17.6 °F 6.4 °F 17.6 °F 100% 29.97 in 5.0 mi North 9.2 mph - N/A Snow Light Snow
8:34 AM 17.6 °F 7.3 °F 17.6 °F 100% 29.96 in 2.0 mi North 8.1 mph - N/A Snow Light Snow
8:54 AM 19.4 °F 9.5 °F 17.6 °F 93% 29.96 in 1.8 mi North 8.1 mph - N/A Snow Light Snow
9:14 AM 19.4 °F 9.5 °F 17.6 °F 93% 29.96 in 3.0 mi North 8.1 mph - N/A Snow Light Snow
9:34 AM 19.4 °F 7.9 °F 17.6 °F 93% 29.96 in 4.0 mi North 10.4 mph - N/A Snow Light Snow
9:54 AM 19.4 °F 7.9 °F 17.6 °F 93% 29.95 in 3.0 mi North 10.4 mph - N/A Snow Light Snow
10:14 AM 19.4 °F 7.9 °F 17.6 °F 93% 29.95 in 2.0 mi North 10.4 mph - N/A Snow Light Snow
10:34 AM 19.4 °F 7.9 °F 17.6 °F 93% 29.95 in 3.0 mi North 10.4 mph - N/A Snow Light Snow
11:14 AM 19.4 °F 7.2 °F 17.6 °F 93% 29.94 in 4.0 mi North 11.5 mph - N/A Snow Light Snow
11:34 AM 19.4 °F 8.6 °F 17.6 °F 93% 29.94 in 7.0 mi North 9.2 mph - N/A   Overcast
11:54 AM 19.4 °F 8.6 °F 17.6 °F 93% 29.94 in 7.0 mi NNE 9.2 mph - N/A Snow Light Snow
12:14 PM 19.4 °F 7.9 °F 17.6 °F 93% 29.94 in 7.0 mi North 10.4 mph - N/A   Overcast
12:34 PM 19.4 °F 8.6 °F 17.6 °F 93% 29.93 in 7.0 mi North 9.2 mph - N/A Snow Light Snow
12:54 PM 21.2 °F 10.9 °F 19.4 °F 93% 29.93 in 4.0 mi North 9.2 mph - N/A Snow Light Snow
1:14 PM 21.2 °F 10.1 °F 17.6 °F 86% 29.92 in 5.0 mi North 10.4 mph - N/A Snow Light Snow
1:34 PM 21.2 °F 10.9 °F 17.6 °F 86% 29.92 in 4.0 mi North 9.2 mph - N/A Snow Light Snow
1:54 PM 21.2 °F 10.9 °F 17.6 °F 86% 29.92 in 5.0 mi North 9.2 mph - N/A Snow Light Snow
2:14 PM 21.2 °F 10.1 °F 17.6 °F 86% 29.92 in 5.0 mi North 10.4 mph - N/A   Overcast
2:34 PM 21.2 °F 10.9 °F 19.4 °F 93% 29.92 in 7.0 mi North 9.2 mph - N/A   Overcast
2:54 PM 21.2 °F 10.1 °F 17.6 °F 86% 29.92 in 7.0 mi North 10.4 mph - N/A Snow Light Snow
3:14 PM 21.2 °F 11.7 °F 17.6 °F 86% 29.92 in 2.0 mi NNW 8.1 mph - N/A Snow Light Snow
3:34 PM 19.4 °F 7.9 °F 17.6 °F 93% 29.93 in 1.2 mi NW 10.4 mph - N/A Snow Light Snow
3:54 PM 19.4 °F 6.0 °F 17.6 °F 93% 29.93 in 1.8 mi North 13.8 mph 17.3 mph N/A Snow Light Snow
4:14 PM 19.4 °F 6.6 °F 17.6 °F 93% 29.93 in 3.0 mi North 12.7 mph - N/A Snow Light Snow
4:34 PM 19.4 °F 7.2 °F 17.6 °F 93% 29.93 in 5.0 mi North 11.5 mph - N/A Snow Light Snow
4:54 PM 19.4 °F 6.6 °F 17.6 °F 93% 29.93 in 10.0 mi North 12.7 mph - N/A Snow Light Snow
5:14 PM 17.6 °F 5.7 °F 15.8 °F 93% 29.93 in 10.0 mi North 10.4 mph - N/A Snow Light Snow
5:34 PM 17.6 °F 6.4 °F 15.8 °F 93% 29.93 in 5.0 mi North 9.2 mph - N/A Snow Light Snow
5:54 PM 17.6 °F 6.4 °F 15.8 °F 93% 29.94 in 7.0 mi North 9.2 mph - N/A Snow Light Snow
6:14 PM 17.6 °F 7.3 °F 15.8 °F 93% 29.94 in 5.0 mi North 8.1 mph - N/A Snow Light Snow
6:34 PM 17.6 °F 5.0 °F 15.8 °F 93% 29.93 in 10.0 mi North 11.5 mph - N/A Snow Light Snow
6:54 PM 17.6 °F 8.2 °F 15.8 °F 93% 29.94 in 7.0 mi North 6.9 mph - N/A Snow Light Snow
7:14 PM 17.6 °F 8.2 °F 15.8 °F 93% 29.94 in 7.0 mi North 6.9 mph - N/A Snow Light Snow
7:34 PM 17.6 °F 9.3 °F 15.8 °F 93% 29.94 in 7.0 mi NNW 5.8 mph - N/A Snow Light Snow
7:54 PM 17.6 °F 8.2 °F 15.8 °F 93% 29.93 in 10.0 mi NW 6.9 mph - N/A Snow Light Snow
8:14 PM 15.8 °F 6.1 °F 15.8 °F 100% 29.93 in 7.0 mi NW 6.9 mph - N/A Snow Light Snow
8:34 PM 15.8 °F 6.1 °F 14.0 °F 93% 29.93 in 10.0 mi NNW 6.9 mph - N/A   Overcast
8:54 PM 15.8 °F 8.6 °F 14.0 °F 93% 29.92 in 10.0 mi NW 4.6 mph - N/A Snow Light Snow
9:14 PM 14.0 °F 6.5 °F 12.2 °F 93% 29.92 in 10.0 mi NNW 4.6 mph - N/A Snow Light Snow
9:34 PM 14.0 °F 6.5 °F 12.2 °F 93% 29.92 in 7.0 mi NW 4.6 mph - N/A Snow Light Snow
9:54 PM 14.0 °F 5.1 °F 12.2 °F 93% 29.92 in 10.0 mi NW 5.8 mph - N/A Snow Light Snow
10:14 PM 14.0 °F 5.1 °F 12.2 °F 93% 29.91 in 10.0 mi NW 5.8 mph - N/A Snow Light Snow
10:34 PM 12.2 °F 2.9 °F 12.2 °F 100% 29.92 in 10.0 mi WNW 5.8 mph - N/A   Overcast
10:54 PM 12.2 °F 4.3 °F 12.2 °F 100% 29.92 in 10.0 mi NW 4.6 mph - N/A   Overcast
11:14 PM 12.2 °F 2.9 °F 12.2 °F 100% 29.92 in 10.0 mi WNW 5.8 mph - N/A   Overcast
11:34 PM 12.2 °F 2.9 °F 10.4 °F 92% 29.92 in 10.0 mi NW 5.8 mph - N/A   Scattered Clouds
11:54 PM 12.2 °F 4.3 °F 10.4 °F 92% 29.92 in 10.0 mi NW 4.6 mph - N/A   Clear